Wind_Speed
31 28 23 20 19 19 20 21 22 22 22 22 22 22 22 23 23 23 23 22 21 20 21 21 23 24 25 25 24 24 25 27 28 30 32 34 35 36 36 36 38 42 46 46 46 46 46 45 44 42 40 38 39 41 43 43 41 39 37 36 36 37 38 39 40 41 42 43 43
28 24 20 18 18 19 20 21 21 22 22 21 21 21 21 21 22 22 22 21 20 20 20 21 23 24 24 24 23 24 25 26 28 30 31 33 34 36 36 37 38 42 46 46 46 46 46 45 43 41 39 38 39 41 42 40 38 37 36 36 36 35 36 37 38 39 41 42 43
25 21 19 18 19 19 20 21 21 21 21 20 20 20 20 21 21 21 20 20 19 20 20 21 22 23 23 23 23 23 25 27 28 29 31 33 35 37 38 38 40 43 45 45 45 45 45 43 41 39 37 37 39 40 39 38 36 35 35 36 35 34 34 35 37 38 40 41 42
22 20 18 18 18 19 19 19 20 20 19 19 19 20 20 20 20 20 20 19 19 20 21 22 22 22 22 22 22 23 25 28 29 30 32 36 39 41 42 42 43 44 44 43 43 42 42 40 38 37 36 36 37 38 37 36 35 35 34 34 33 33 33 35 37 38 40 41 42
20 18 17 17 17 18 18 18 18 18 18 19 19 20 20 20 20 20 19 20 20 21 21 21 22 22 22 21 22 24 27 30 31 33 36 40 42 44 43 43 43 42 42 41 40 39 38 37 36 36 35 35 36 36 36 35 34 34 33 33 32 33 33 35 37 39 40 40 40
18 16 16 16 16 17 17 18 18 18 18 18 19 19 19 19 19 20 20 20 20 20 21 21 22 21 21 20 22 26 30 32 34 37 41 43 44 44 42 41 40 40 39 39 38 37 36 35 35 35 34 34 34 34 34 34 33 33 33 33 33 33 35 37 38 38 38 37 36
16 15 15 15 16 17 17 18 18 18 18 18 17 17 17 18 19 20 20 20 20 21 21 22 22 22 21 21 24 28 32 33 36 41 44 45 45 44 41 39 37 37 37 37 36 36 35 35 34 34 33 33 33 33 33 33 32 32 33 33 34 35 36 37 36 35 34 33 33
14 14 15 15 16 17 17 18 18 18 17 16 16 16 16 17 18 20 21 21 21 22 23 23 23 23 23 23 26 31 34 34 37 41 45 46 45 44 40 37 35 35 35 35 35 34 34 33 33 32 31 31 31 31 31 31 31 31 32 32 33 34 34 34 32 30 29 29 30
14 14 14 15 16 17 17 17 17 17 16 15 14 15 16 17 19 21 22 23 24 24 24 24 24 24 25 26 29 32 35 36 39 42 43 43 43 42 39 35 33 33 33 33 33 32 32 31 31 30 30 29 29 29 29 29 29 29 30 30 31 31 30 29 27 26 26 26 27
13 13 14 15 16 17 17 16 16 15 14 13 14 15 17 19 21 23 25 25 25 25 25 25 25 26 27 28 31 34 36 38 40 41 41 41 40 38 35 33 32 32 32 31 31 31 30 30 30 29 29 28 28 28 27 27 27 27 27 27 27 27 26 25 24 24 24 24 25
12 13 14 15 15 16 16 15 15 14 13 13 14 16 18 20 23 25 26 26 25 25 25 26 27 28 29 30 34 36 38 39 39 39 39 38 36 34 32 32 32 32 31 31 30 30 30 29 29 28 28 28 27 26 26 26 26 25 25 25 25 25 24 24 24 23 23 24 25
11 12 13 14 14 15 15 15 13 12 12 13 15 17 19 20 22 24 25 25 25 26 26 28 30 31 32 34 36 38 38 37 38 38 38 36 34 32 32 31 31 31 30 30 30 29 29 28 28 28 27 27 26 25 25 25 24 24 24 24 24 24 23 24 24 23 23 24 25
11 11 12 13 14 14 14 13 12 10 11 13 15 16 17 18 19 21 23 24 25 27 29 31 33 34 36 38 38 37 36 36 38 38 37 35 33 32 31 30 29 29 29 28 28 28 28 27 27 27 26 26 25 25 24 24 23 23 23 23 23 23 23 23 24 24 24 25 27
10 11 12 13 14 14 14 12 10 9 11 13 13 14 14 16 19 21 24 26 27 30 32 34 36 38 40 40 39 38 37 38 38 38 36 34 32 31 29 28 27 27 27 26 26 26 26 26 25 25 26 25 25 24 23 22 22 22 22 22 22 22 23 23 23 24 25 26 28
9 10 12 13 14 14 12 10 8 9 11 11 10 10 15 18 21 23 26 29 32 34 36 38 39 41 41 40 39 39 39 39 38 37 35 33 30 28 27 26 26 25 25 25 25 25 25 24 24 24 24 24 23 22 21 20 20 20 20 20 20 20 21 22 22 23 24 26 27
9 10 12 13 14 13 11 8 8 8 9 8 6 11 18 22 24 26 29 33 36 39 40 41 42 42 40 39 39 39 39 39 37 34 32 29 27 26 25 25 24 24 24 25 25 24 24 23 23 23 22 22 21 20 19 19 18 18 18 18 18 19 19 20 20 21 22 23 25
9 11 13 14 13 12 10 8 8 8 8 7 6 13 21 24 26 28 31 35 39 41 42 42 41 41 40 39 38 39 38 36 33 30 28 26 25 24 23 23 24 24 24 24 24 24 23 23 22 21 21 20 19 18 17 17 16 16 16 17 18 18 19 19 19 19 19 20 21
10 11 13 13 12 11 10 9 7 7 7 8 8 14 20 25 26 28 31 35 38 41 41 41 40 39 39 38 38 37 35 32 29 26 24 23 22 22 23 23 23 23 23 23 23 23 23 22 22 21 21 20 18 16 15 15 14 15 16 17 19 20 20 20 19 18 17 17 18
10 11 12 13 12 12 11 9 6 6 7 8 9 13 18 23 26 29 32 35 37 39 39 39 39 38 38 37 36 34 32 28 26 24 22 22 22 22 22 23 23 23 22 22 22 22 22 22 22 22 21 19 16 14 13 13 12 13 15 18 20 20 20 19 19 18 17 16 16
9 10 11 12 12 12 11 8 6 6 7 8 8 11 15 21 25 28 31 34 36 36 37 37 37 36 35 35 34 31 28 25 23 22 21 21 22 22 22 23 22 22 22 21 21 21 21 20 20 19 18 17 14 12 11 11 11 13 15 18 18 18 17 17 17 17 17 17 16
8 9 10 11 12 11 10 8 8 9 10 11 10 10 13 20 25 28 30 33 34 34 34 34 34 33 32 32 30 27 24 23 22 21 21 21 21 22 22 22 22 22 21 21 20 20 19 17 16 15 14 13 12 11 10 10 12 13 15 16 16 16 16 16 16 17 17 16 16
7 7 8 10 10 9 8 8 9 12 14 16 14 12 14 21 27 30 31 32 33 33 32 31 31 30 29 28 26 24 24 23 22 21 21 21 21 21 21 21 21 21 20 19 18 17 16 15 14 13 12 12 12 11 10 11 11 12 13 14 15 15 15 15 16 16 16 15 15
5 6 7 9 8 7 6 7 8 10 12 14 14 14 17 24 28 29 30 31 32 32 30 28 27 26 25 24 24 24 24 24 23 22 21 21 21 21 21 21 21 20 18 17 16 15 15 15 14 12 11 12 12 11 11 11 11 11 12 13 14 15 15 16 16 16 15 14 14
4 5 7 8 7 5 4 5 7 9 11 12 14 16 20 26 28 28 29 30 31 30 28 25 24 23 23 24 24 24 24 24 23 23 22 22 22 22 21 20 19 18 17 16 15 14 14 14 12 11 10 11 11 11 11 11 11 11 12 13 14 15 16 17 17 17 16 15 15
5 6 7 8 7 7 7 9 11 13 15 16 16 19 24 27 28 29 29 30 29 28 26 24 24 24 24 24 24 24 24 24 24 23 23 23 22 21 20 19 18 16 15 14 13 12 12 11 10 10 10 11 12 13 13 13 12 11 12 13 15 16 17 18 19 18 17 17 16
8 9 10 10 11 12 14 16 18 19 20 20 21 23 26 28 28 29 29 29 28 28 28 27 26 25 25 25 25 25 24 24 24 24 23 23 22 20 19 18 17 15 14 13 12 11 11 10 10 10 11 12 13 13 13 11 10 9 10 12 14 14 15 16 17 17 17 17 17
13 14 14 14 16 18 19 20 21 23 23 24 25 26 27 28 28 29 30 29 28 28 29 30 29 27 25 25 25 24 24 24 24 23 23 22 21 20 19 18 17 15 14 13 13 12 12 11 11 11 11 12 12 11 9 8 8 9 11 12 12 12 12 13 13 13 14 15 15
17 18 18 20 20 21 21 22 23 24 25 25 26 27 28 28 29 30 30 30 28 27 28 28 28 26 25 25 24 24 23 23 23 22 21 21 20 20 19 18 17 16 15 15 14 13 13 12 11 11 10 10 10 9 8 8 9 11 12 13 13 13 13 13 12 12 13 13 13
20 21 22 23 22 21 21 21 22 23 24 26 27 28 29 29 29 30 30 29 27 25 25 25 25 25 24 23 23 23 22 22 22 21 21 21 21 20 20 19 18 18 17 16 15 13 12 10 9 8 7 7 6 6 6 7 9 11 13 13 14 14 14 14 14 14 14 14 15
22 23 24 23 21 20 20 20 21 23 24 26 28 29 29 28 27 27 27 27 26 25 24 24 24 23 23 22 22 22 22 22 21 21 21 21 21 20 20 19 18 18 16 15 14 12 9 7 6 5 4 4 4 6 8 9 12 13 14 15 15 16 16 15 15 15 15 16 17
24 25 24 22 21 20 20 21 22 24 25 26 28 27 27 25 24 24 24 24 25 25 25 24 24 23 23 22 22 21 21 21 20 20 19 19 19 19 19 18 17 16 15 13 12 10 9 8 8 8 8 8 9 11 12 14 15 17 17 18 18 19 18 18 17 17 17 17 18
25 24 23 22 21 21 21 22 24 25 26 26 26 25 24 24 23 23 23 23 24 24 25 24 24 23 23 22 21 20 19 19 18 17 16 16 17 17 17 16 15 14 12 11 10 10 10 11 11 12 12 13 13 14 14 15 16 17 18 19 20 21 21 20 19 18 18 18 19
25 23 23 22 22 22 23 24 26 27 27 26 24 22 22 23 23 23 23 23 23 23 23 23 23 22 21 20 19 18 17 17 16 15 15 14 14 14 14 14 13 12 11 11 11 11 12 13 13 13 13 13 13 13 13 13 13 14 14 15 17 18 19 19 18 18 17 18 19
24 23 23 23 23 23 24 25 26 27 27 26 23 21 21 22 23 23 22 22 22 21 21 21 21 21 20 19 18 17 17 16 16 15 15 14 14 14 14 14 13 12 12 12 12 12 12 12 12 12 12 12 12 12 12 11 11 11 11 12 13 13 14 14 14 14 14 14 15
24 24 24 23 24 25 25 25 25 25 26 26 25 23 22 22 22 22 22 22 21 21 21 21 20 20 20 19 18 17 17 16 16 15 15 15 15 15 15 15 14 13 12 12 12 12 12 12 11 11 11 11 12 11 11 10 10 10 10 10 10 10 9 9 9 10 10 11 11
24 24 23 24 25 25 25 25 24 24 24 24 25 24 24 23 23 23 22 22 22 22 22 21 21 20 20 19 18 17 16 16 15 15 15 14 14 14 14 14 14 13 12 12 12 13 13 13 12 11 10 11 11 11 11 11 11 11 11 10 10 9 9 8 9 9 10 11 11
24 23 22 23 24 25 25 24 24 23 23 23 24 23 23 23 22 21 21 20 21 21 21 21 20 19 19 18 17 16 16 15 15 15 14 14 13 13 13 13 13 13 12 12 13 13 13 13 13 11 10 10 10 11 11 11 10 10 10 10 10 10 10 10 11 11 12 12 12
22 21 21 21 23 24 24 24 23 23 23 22 22 21 21 20 20 19 18 17 17 18 19 19 18 18 17 17 17 17 16 15 14 14 14 13 12 11 11 12 12 12 11 12 11 11 12 13 13 12 11 10 10 10 10 9 8 8 9 9 9 10 10 11 11 11 12 12 13
21 20 20 20 21 22 22 22 22 22 21 20 19 18 18 18 17 16 15 15 15 16 17 17 17 17 17 16 16 16 16 15 14 13 13 13 12 11 10 10 10 10 10 10 9 8 9 10 12 12 11 10 10 9 9 8 7 8 8 9 9 10 10 11 11 11 11 12 13
20 20 19 19 19 19 20 20 20 19 19 18 17 17 16 16 15 15 14 14 14 15 16 16 17 16 16 15 15 15 15 14 14 13 12 12 11 10 9 8 9 9 8 8 8 7 7 8 9 10 10 9 9 8 8 7 8 8 9 9 10 10 10 10 11 11 12 12 13
19 19 18 18 17 17 17 18 18 17 17 17 17 16 16 15 14 14 13 13 13 13 14 15 15 15 15 14 13 13 13 13 13 12 11 10 10 9 8 8 8 8 8 8 8 8 7 7 8 8 8 8 8 7 7 7 7 8 8 9 9 9 9 9 9 10 11 11 12
Wind_Direction
195 192 191 192 197 202 206 209 211 212 214 217 220 222 222 221 220 221 224 226 229 230 228 225 219 216 215 215 213 212 213 214 215 214 211 207 202 199 195 189 182 181 183 185 190 196 199 200 198 197 197 198 199 199 198 195 194 195 196 198 199 200 201 203 204 205 208 209 210
193 191 192 196 201 206 209 210 211 213 216 219 221 222 221 221 221 223 225 227 228 228 227 224 220 217 215 215 214 214 214 214 215 213 209 202 194 189 185 179 177 182 187 188 191 195 197 198 198 198 198 199 200 197 194 194 195 196 198 199 200 201 203 204 206 207 209 211 211
192 192 195 200 206 209 211 212 213 215 217 220 220 220 220 220 222 224 227 228 227 226 225 223 220 217 216 216 216 216 214 211 210 207 200 189 180 175 173 173 179 187 191 192 193 195 196 197 197 199 199 200 199 197 195 195 196 197 198 199 201 202 204 205 207 209 210 211 210
191 194 199 204 209 212 213 214 215 216 218 219 219 218 219 221 223 226 227 227 225 223 222 222 220 219 218 218 218 215 210 204 202 197 187 176 170 168 171 178 185 190 192 193 193 194 194 195 197 199 199 198 197 196 195 195 196 197 198 199 202 204 205 207 208 210 210 210 210
192 196 202 208 212 215 216 216 216 216 217 218 218 219 220 222 224 226 227 227 225 222 220 220 220 220 219 219 217 211 202 195 191 186 179 171 168 169 173 180 185 189 191 192 192 191 192 193 195 196 196 195 194 194 194 194 195 196 197 200 203 206 208 209 210 210 211 211 211
194 199 206 211 214 216 216 216 216 216 217 218 220 221 223 224 225 226 226 226 224 222 220 221 221 220 219 218 213 203 193 186 181 178 175 173 171 172 173 177 181 185 188 189 189 189 189 189 190 191 191 190 191 191 192 193 194 195 196 199 203 207 210 210 210 210 210 211 212
197 203 209 213 215 216 216 215 215 216 218 221 223 225 226 226 226 226 225 224 223 222 221 221 220 217 215 213 205 194 187 181 177 175 176 176 176 175 174 174 177 180 183 184 185 185 185 185 186 186 187 187 189 190 192 193 193 195 197 200 204 208 210 210 210 210 210 211 212
200 207 211 214 215 215 215 215 216 218 221 225 227 229 228 227 226 225 224 223 222 221 221 221 219 214 209 207 198 188 182 179 175 174 175 177 176 176 176 174 174 176 178 179 180 180 181 181 182 183 184 186 188 190 191 192 194 195 198 201 204 207 209 209 210 211 212 213 214
203 208 211 213 214 214 215 216 218 221 225 229 231 232 230 228 226 225 224 223 222 221 220 219 216 210 205 201 193 185 179 175 172 171 171 171 172 173 174 173 171 171 172 172 173 175 176 178 180 181 182 184 185 187 188 190 192 195 197 200 203 204 206 207 209 212 214 216 217
206 209 212 213 214 215 216 217 220 224 228 233 236 236 234 232 229 226 225 223 221 219 217 214 210 204 199 196 189 181 175 171 168 167 167 168 169 170 169 167 165 165 166 167 168 170 173 175 177 178 178 179 181 182 183 184 188 192 195 197 199 200 202 204 208 212 215 218 220
207 210 213 214 216 217 218 219 222 226 232 239 242 242 239 235 230 226 223 219 217 214 211 206 201 196 193 191 185 178 172 167 165 164 165 165 164 163 161 159 158 159 161 163 165 168 170 172 173 174 174 175 176 177 178 180 184 188 191 194 196 198 200 204 207 211 215 218 223
207 211 214 217 218 219 220 221 224 230 239 246 248 246 241 235 227 220 215 211 208 205 201 196 191 187 185 185 180 174 168 164 163 163 163 161 159 155 153 153 154 156 158 160 163 166 169 171 171 172 173 174 175 176 177 180 183 187 190 193 196 198 200 204 207 210 214 218 223
209 213 216 218 220 222 222 222 226 237 248 252 251 247 240 228 215 206 200 197 195 193 190 186 182 180 179 178 174 168 164 162 162 162 159 156 152 150 150 151 152 154 157 160 163 166 169 171 173 173 174 175 177 178 180 183 186 189 192 195 197 199 201 204 207 209 213 217 221
211 215 218 221 223 224 223 223 232 245 254 256 253 243 226 209 195 187 183 182 181 181 180 178 175 175 174 171 167 163 162 162 161 159 155 152 150 150 150 151 153 155 158 161 164 168 171 173 174 175 176 177 178 180 182 185 188 192 195 197 199 200 201 203 206 208 211 215 218
215 219 222 224 226 226 225 226 237 251 258 261 250 218 195 183 175 171 170 170 171 171 172 172 171 171 169 165 163 162 162 161 158 155 152 152 151 151 151 152 154 157 160 163 166 169 172 173 174 175 176 177 177 178 180 183 187 191 194 197 198 199 200 202 203 205 209 212 215
220 223 225 226 227 226 226 229 239 252 261 257 224 179 168 163 160 160 160 160 162 164 166 167 166 165 163 162 162 162 161 158 155 153 153 153 153 153 154 154 156 159 162 165 168 170 171 172 172 173 173 174 175 175 177 179 183 188 191 194 196 198 199 200 202 204 206 210 213
227 227 227 227 227 226 226 231 241 254 255 235 186 158 154 153 153 154 154 154 155 158 160 161 161 160 160 160 160 159 157 154 153 153 154 154 155 155 155 156 157 159 162 165 167 169 170 171 171 171 172 173 174 175 177 180 184 190 194 198 199 200 201 202 203 205 208 212 214
233 231 228 225 223 225 227 230 242 252 244 217 174 152 150 152 153 153 154 154 155 156 157 157 157 157 157 157 156 154 153 152 152 153 154 155 155 154 154 155 156 159 161 164 166 168 170 172 173 174 176 177 179 181 183 185 189 195 203 208 209 208 207 206 207 211 215 218 220
238 233 227 222 220 222 225 226 234 244 235 208 170 152 152 156 155 156 157 159 161 160 158 155 154 154 154 153 152 151 151 150 150 151 152 153 154 153 153 154 155 158 160 163 166 170 173 176 178 180 181 183 186 190 192 193 195 203 213 218 217 215 212 211 212 216 222 226 226
241 233 227 220 219 221 221 216 214 219 216 199 172 157 158 162 159 157 158 161 162 160 155 152 151 151 151 151 150 149 148 147 146 147 148 150 151 152 152 153 155 158 162 167 171 175 178 180 181 182 184 187 192 195 196 197 203 212 219 221 220 217 214 213 215 220 226 229 229
244 236 228 222 221 219 214 204 197 196 197 196 190 182 174 170 162 158 157 157 156 153 150 149 148 148 148 148 148 147 144 143 142 142 142 144 146 147 149 152 157 162 168 173 175 177 177 175 175 178 184 191 195 195 194 197 205 213 216 217 216 214 212 214 218 223 227 229 228
249 239 229 222 217 212 204 198 194 192 192 194 198 202 193 178 167 161 158 156 153 150 148 148 147 147 147 147 147 144 142 140 139 137 137 138 140 144 149 156 162 168 171 172 171 170 168 168 169 176 186 195 196 195 194 197 202 206 209 210 210 210 212 215 220 224 228 229 228
250 237 222 212 204 198 197 199 193 189 188 190 197 203 194 178 169 162 156 152 150 148 148 148 148 148 149 148 146 143 141 139 138 138 138 139 143 149 155 162 166 168 167 165 164 165 166 167 170 177 187 195 195 194 194 196 197 200 203 207 210 212 214 217 219 222 225 227 229
233 219 202 188 179 173 172 174 175 180 188 194 194 186 174 166 160 153 147 145 145 147 148 148 147 147 147 146 145 143 142 142 142 143 145 148 152 156 161 163 164 163 162 161 164 167 169 169 171 176 184 189 189 188 188 189 190 196 205 213 217 219 220 220 220 221 222 225 228
192 178 161 151 143 141 153 171 182 185 186 187 180 167 158 153 150 146 143 143 146 148 149 146 144 143 144 145 145 145 146 147 149 151 153 155 158 159 160 159 158 158 158 161 165 168 168 168 172 179 185 186 185 183 183 183 188 199 214 224 228 228 226 224 223 222 222 223 225
148 138 131 131 142 157 171 178 180 178 174 170 162 154 150 149 147 146 145 146 148 150 149 147 145 144 145 146 148 149 151 153 155 157 158 158 158 157 156 155 155 156 157 159 162 164 166 169 177 184 187 185 182 181 180 183 193 212 229 237 237 235 232 228 225 224 223 222 222
128 131 137 148 161 169 172 172 168 163 160 157 155 153 151 150 150 148 147 148 149 149 148 146 146 146 147 149 150 151 153 155 156 157 157 156 155 153 153 153 154 155 156 158 161 164 167 170 174 178 179 177 175 176 183 197 215 230 236 236 235 234 234 235 235 231 226 223 221
137 143 152 161 167 168 166 162 157 154 152 152 153 152 151 151 150 149 149 148 149 149 148 147 146 147 149 150 151 151 152 153 154 154 154 154 154 153 153 153 154 155 157 160 163 165 165 164 164 163 163 163 164 171 185 205 221 228 229 227 225 224 226 230 235 236 234 233 233
147 153 160 166 166 162 158 155 152 150 150 150 150 150 149 149 148 147 147 147 148 150 150 149 149 150 150 150 150 151 151 151 151 152 154 155 155 155 155 155 156 157 158 160 161 159 157 152 149 149 151 153 157 169 187 208 221 227 228 228 227 227 228 229 230 232 236 239 244
154 159 164 164 160 155 152 151 151 150 150 149 148 148 148 147 146 144 144 145 147 148 150 151 151 151 151 150 151 150 149 149 151 153 155 156 156 156 156 156 156 156 156 156 154 151 148 149 153 164 175 187 199 210 217 222 226 228 230 231 232 233 233 233 233 234 237 241 245
159 162 163 159 153 149 148 149 150 150 149 148 147 148 148 148 146 144 143 143 144 145 146 148 149 149 149 149 149 147 147 148 151 153 155 156 156 155 155 154 154 153 153 152 151 153 160 174 189 200 208 214 220 224 226 228 229 229 229 230 231 232 233 235 236 238 240 242 246
161 160 157 153 149 147 148 150 150 150 148 147 147 149 150 150 147 144 142 142 141 140 141 143 143 143 143 144 145 144 145 147 149 152 155 157 157 156 155 154 153 153 155 159 164 173 184 195 203 209 213 216 218 219 222 224 227 228 229 228 228 229 230 231 234 238 242 244 246
161 158 154 151 148 147 148 150 150 150 149 149 149 149 149 147 144 141 140 140 139 138 138 138 138 139 140 142 143 144 146 149 152 155 159 162 163 162 160 159 159 163 169 177 184 191 198 204 209 212 213 214 212 212 212 214 219 223 225 227 228 228 228 228 231 235 240 243 246
159 156 154 151 148 147 147 148 149 149 149 149 150 150 149 145 142 141 140 140 140 140 140 140 141 142 144 147 149 152 154 156 158 161 163 167 169 170 169 169 169 174 181 187 193 198 201 203 204 205 206 206 205 204 204 205 209 214 219 223 225 226 227 226 228 231 236 239 242
155 153 151 149 147 146 145 145 146 146 147 147 148 148 147 145 143 143 143 144 145 146 145 145 146 147 149 151 153 156 158 160 161 162 164 166 169 171 172 172 173 177 183 188 192 194 194 191 187 189 196 203 206 207 208 212 216 220 222 222 222 222 222 224 226 230 233 236 238
150 149 145 143 142 142 143 144 145 144 142 141 140 140 140 139 138 138 140 144 147 148 148 147 148 149 151 151 153 154 156 157 158 157 158 160 163 167 169 170 171 174 179 183 186 186 183 177 175 182 196 210 216 221 223 225 226 226 225 223 222 223 225 228 231 234 237 239 240
143 141 138 136 136 138 140 143 143 142 139 135 132 131 130 130 129 130 133 139 143 145 145 145 144 145 146 148 149 150 151 152 151 150 149 151 156 161 165 167 168 171 175 177 179 179 177 173 174 183 199 216 226 232 234 233 229 225 222 221 221 223 226 229 232 235 238 241 243
134 134 133 132 133 135 138 140 140 138 135 131 128 125 123 123 123 124 128 134 138 139 140 141 139 139 140 142 143 142 142 142 142 142 143 146 151 157 163 166 168 171 175 177 179 180 180 178 180 187 198 211 223 232 238 240 235 228 225 226 226 226 228 232 235 237 239 240 243
127 130 130 131 132 134 135 136 135 132 130 127 125 123 123 124 123 123 126 131 136 138 139 139 137 135 135 136 136 134 133 133 136 140 143 145 149 154 161 165 170 177 183 185 185 186 187 187 188 192 198 207 217 229 239 243 242 238 237 239 239 239 239 242 245 246 245 243 244
125 129 131 133 133 133 133 132 130 127 124 122 120 121 125 128 128 127 127 130 134 138 138 136 133 132 132 133 135 134 133 133 135 139 143 145 148 152 159 167 175 182 184 181 180 183 185 186 189 195 202 210 219 229 238 243 245 247 248 250 252 252 251 251 253 252 250 247 244
126 128 130 131 131 130 128 127 125 122 118 116 115 117 121 127 131 133 132 132 135 138 137 135 132 130 131 134 136 137 136 136 137 140 144 147 152 158 164 172 176 174 169 166 169 173 176 179 187 197 208 217 223 226 231 238 245 248 250 251 252 252 250 246 246 246 244 240 236
Height
1332 1334 1335 1337 1338 1338 1339 1340 1342 1343 1344 1345 1346 1347 1348 1350 1351 1352 1353 1355 1356 1358 1359 1360 1361 1362 1363 1364 1365 1367 1368 1370 1372 1373 1375 1377 1379 1381 1383 1385 1388 1388 1389 1391 1396 1402 1407 1410 1413 1416 1419 1421 1423 1425 1426 1427 1429 1431 1434 1436 1438 1441 1443 1445 1448 1449 1451 1453 1456
1332 1333 1334 1335 1336 1337 1338 1339 1340 1341 1343 1344 1345 1346 1348 1348 1350 1351 1352 1354 1355 1357 1358 1359 1360 1361 1362 1363 1364 1366 1368 1369 1370 1372 1373 1375 1377 1379 1382 1385 1387 1388 1389 1391 1396 1401 1406 1409 1413 1416 1418 1421 1422 1424 1425 1427 1429 1431 1433 1435 1437 1439 1442 1444 1447 1448 1451 1453 1455
1331 1333 1333 1334 1335 1336 1337 1338 1339 1340 1342 1343 1344 1345 1346 1348 1348 1350 1351 1353 1354 1356 1357 1358 1359 1360 1361 1363 1364 1365 1367 1368 1369 1370 1372 1373 1376 1379 1382 1384 1386 1387 1389 1393 1397 1401 1405 1409 1413 1415 1418 1420 1421 1423 1425 1427 1428 1430 1432 1434 1436 1438 1441 1443 1446 1448 1450 1452 1453
1330 1331 1332 1333 1334 1335 1336 1337 1338 1339 1341 1342 1343 1344 1345 1346 1347 1348 1350 1352 1353 1355 1356 1357 1358 1359 1361 1362 1363 1364 1366 1367 1369 1370 1371 1373 1375 1378 1381 1383 1385 1387 1390 1394 1398 1402 1406 1409 1413 1415 1417 1419 1421 1422 1424 1426 1428 1429 1431 1433 1435 1438 1440 1442 1444 1446 1448 1450 1452
1329 1330 1331 1333 1333 1334 1335 1336 1338 1338 1340 1341 1342 1343 1344 1345 1346 1348 1349 1350 1352 1353 1354 1356 1357 1359 1360 1361 1362 1364 1365 1367 1369 1370 1372 1373 1375 1378 1379 1381 1384 1388 1391 1395 1398 1402 1406 1409 1412 1414 1416 1418 1420 1421 1423 1425 1426 1428 1431 1433 1435 1437 1439 1441 1443 1445 1447 1449 1452
1329 1330 1331 1332 1333 1333 1334 1335 1337 1338 1339 1340 1341 1342 1343 1344 1345 1346 1348 1349 1351 1352 1354 1355 1356 1358 1359 1360 1362 1363 1365 1367 1369 1371 1372 1373 1375 1377 1378 1381 1384 1388 1392 1396 1399 1403 1406 1409 1411 1413 1415 1417 1419 1421 1423 1424 1426 1428 1430 1432 1434 1436 1438 1440 1442 1444 1446 1449 1451
1329 1330 1331 1331 1332 1333 1333 1335 1336 1337 1338 1338 1339 1340 1341 1343 1344 1345 1347 1348 1350 1351 1353 1354 1355 1357 1359 1360 1362 1363 1365 1367 1369 1371 1373 1374 1375 1376 1378 1380 1384 1388 1392 1396 1399 1403 1405 1408 1410 1412 1414 1416 1418 1420 1422 1423 1425 1427 1429 1431 1433 1435 1437 1439 1441 1443 1446 1448 1450
1329 1329 1330 1331 1331 1332 1333 1334 1335 1336 1337 1338 1338 1339 1340 1342 1343 1344 1345 1347 1348 1350 1351 1353 1354 1356 1358 1360 1361 1363 1365 1367 1369 1371 1373 1374 1375 1377 1378 1381 1384 1388 1392 1396 1399 1402 1405 1407 1409 1411 1413 1415 1417 1419 1421 1423 1425 1426 1428 1430 1432 1434 1436 1438 1441 1443 1445 1447 1449
1328 1329 1330 1330 1331 1331 1332 1333 1334 1335 1336 1337 1337 1338 1339 1341 1342 1343 1344 1345 1346 1348 1349 1351 1353 1355 1357 1359 1361 1363 1365 1368 1370 1372 1373 1374 1375 1377 1379 1382 1385 1388 1392 1395 1398 1401 1404 1406 1408 1411 1413 1414 1417 1418 1420 1422 1424 1426 1428 1429 1431 1433 1436 1438 1440 1442 1443 1445 1447
1328 1329 1329 1330 1330 1331 1332 1333 1333 1334 1335 1335 1336 1337 1338 1339 1340 1341 1342 1343 1345 1346 1348 1349 1352 1354 1356 1358 1360 1363 1365 1368 1370 1372 1373 1375 1376 1378 1380 1383 1385 1388 1392 1395 1398 1401 1403 1406 1408 1410 1412 1414 1416 1418 1420 1422 1423 1425 1427 1429 1431 1433 1435 1437 1439 1440 1442 1444 1446
1328 1328 1329 1329 1330 1330 1331 1332 1333 1333 1334 1334 1335 1336 1337 1337 1338 1339 1340 1341 1343 1344 1346 1348 1350 1353 1355 1358 1360 1362 1364 1366 1368 1371 1373 1374 1376 1378 1381 1383 1386 1388 1391 1394 1398 1400 1403 1405 1408 1410 1412 1414 1416 1418 1419 1421 1423 1425 1426 1428 1430 1432 1434 1436 1438 1439 1441 1443 1444
1328 1328 1328 1329 1329 1330 1331 1331 1332 1333 1333 1333 1334 1334 1334 1335 1335 1336 1338 1339 1341 1343 1344 1347 1349 1352 1354 1357 1359 1362 1363 1365 1367 1369 1371 1373 1376 1379 1381 1383 1386 1388 1391 1394 1397 1400 1403 1405 1407 1409 1412 1413 1415 1417 1419 1421 1422 1424 1426 1428 1429 1431 1433 1435 1437 1438 1440 1442 1443
1328 1328 1328 1329 1329 1329 1330 1331 1331 1332 1332 1333 1332 1332 1332 1332 1333 1334 1335 1337 1339 1341 1344 1346 1348 1351 1354 1357 1359 1361 1363 1364 1366 1368 1371 1374 1377 1379 1382 1384 1386 1389 1392 1394 1397 1400 1402 1405 1407 1409 1411 1413 1415 1417 1418 1420 1422 1423 1425 1427 1428 1430 1432 1434 1435 1437 1439 1441 1442
1328 1328 1328 1328 1329 1329 1329 1330 1331 1332 1332 1331 1331 1330 1330 1331 1332 1333 1334 1336 1338 1341 1343 1346 1349 1352 1354 1356 1359 1361 1363 1364 1366 1369 1372 1375 1377 1379 1382 1384 1387 1389 1392 1395 1397 1399 1402 1404 1407 1408 1410 1412 1414 1416 1418 1420 1421 1423 1424 1426 1428 1429 1431 1433 1434 1436 1438 1440 1441
1328 1328 1328 1328 1328 1328 1329 1330 1331 1332 1331 1331 1330 1329 1329 1330 1331 1333 1334 1336 1338 1341 1343 1346 1349 1352 1354 1356 1358 1361 1363 1364 1367 1370 1373 1375 1377 1379 1382 1384 1387 1389 1392 1395 1397 1400 1402 1404 1406 1408 1410 1412 1414 1416 1418 1419 1421 1423 1424 1425 1427 1428 1430 1432 1433 1435 1437 1438 1440
1328 1328 1328 1328 1328 1328 1330 1331 1331 1331 1331 1330 1330 1329 1329 1330 1332 1333 1335 1337 1339 1342 1344 1347 1350 1353 1355 1357 1358 1360 1362 1364 1368 1370 1373 1375 1378 1380 1382 1384 1387 1389 1392 1395 1397 1400 1402 1404 1406 1408 1410 1412 1414 1416 1417 1419 1421 1422 1423 1425 1426 1428 1429 1431 1432 1434 1435 1437 1439
1328 1328 1328 1328 1328 1329 1330 1331 1331 1331 1331 1332 1331 1331 1330 1331 1333 1334 1336 1338 1340 1343 1346 1348 1351 1354 1356 1358 1358 1360 1362 1365 1368 1371 1373 1375 1378 1380 1382 1384 1387 1389 1392 1395 1397 1399 1402 1404 1406 1408 1410 1412 1414 1416 1417 1418 1420 1421 1423 1424 1426 1427 1428 1430 1431 1433 1434 1436 1438
1328 1328 1328 1328 1329 1330 1331 1331 1331 1331 1331 1333 1333 1333 1333 1333 1335 1336 1338 1340 1342 1344 1346 1349 1352 1354 1356 1358 1358 1360 1362 1365 1368 1371 1373 1376 1378 1380 1382 1385 1387 1390 1393 1395 1397 1399 1402 1404 1406 1408 1410 1412 1414 1415 1417 1418 1419 1421 1422 1423 1425 1426 1428 1429 1431 1432 1433 1435 1437
1328 1328 1328 1329 1330 1331 1332 1332 1333 1332 1331 1333 1334 1335 1335 1336 1337 1338 1340 1342 1343 1345 1346 1348 1351 1353 1355 1356 1358 1360 1363 1365 1368 1371 1373 1376 1378 1380 1383 1385 1388 1390 1393 1395 1398 1400 1402 1404 1406 1408 1410 1412 1413 1415 1416 1418 1419 1420 1421 1422 1423 1425 1427 1428 1430 1431 1433 1434 1436
1328 1328 1329 1329 1330 1332 1333 1334 1334 1333 1333 1333 1334 1337 1338 1339 1339 1341 1342 1343 1345 1346 1347 1348 1351 1353 1354 1356 1358 1361 1363 1366 1369 1371 1374 1376 1378 1381 1383 1386 1389 1391 1394 1396 1398 1400 1402 1404 1406 1408 1410 1411 1413 1414 1415 1417 1418 1419 1420 1422 1423 1424 1426 1428 1429 1431 1432 1434 1435
1329 1329 1329 1330 1331 1333 1333 1335 1336 1337 1336 1336 1336 1338 1340 1342 1343 1344 1345 1346 1347 1348 1349 1351 1352 1353 1355 1357 1359 1362 1364 1367 1369 1372 1374 1377 1379 1382 1384 1387 1390 1392 1394 1396 1398 1400 1402 1404 1406 1408 1409 1411 1412 1413 1415 1416 1417 1418 1420 1421 1423 1424 1426 1427 1429 1430 1432 1433 1434
1329 1330 1330 1331 1332 1333 1334 1336 1337 1338 1339 1340 1339 1340 1342 1344 1346 1347 1348 1349 1350 1351 1352 1353 1354 1355 1356 1358 1360 1362 1365 1367 1370 1373 1375 1378 1380 1383 1386 1388 1391 1393 1394 1396 1398 1400 1402 1403 1406 1408 1409 1411 1412 1413 1414 1415 1417 1418 1419 1421 1422 1424 1425 1427 1429 1430 1431 1433 1434
1330 1330 1331 1332 1333 1334 1335 1335 1337 1338 1339 1341 1342 1343 1344 1345 1347 1349 1350 1350 1351 1352 1353 1354 1354 1355 1357 1359 1361 1363 1365 1368 1370 1373 1376 1378 1381 1384 1386 1388 1391 1393 1394 1396 1398 1399 1401 1403 1405 1407 1408 1410 1411 1413 1414 1415 1416 1417 1419 1420 1422 1423 1425 1427 1428 1430 1431 1432 1433
1331 1332 1332 1333 1334 1335 1336 1336 1337 1338 1340 1341 1342 1342 1343 1344 1346 1348 1348 1349 1349 1351 1352 1353 1355 1356 1358 1360 1362 1364 1366 1369 1371 1374 1377 1379 1382 1384 1386 1388 1390 1392 1393 1395 1397 1399 1401 1403 1405 1407 1408 1409 1411 1412 1413 1414 1415 1417 1418 1420 1422 1423 1425 1427 1428 1429 1431 1432 1433
1333 1333 1334 1335 1336 1337 1337 1338 1338 1338 1339 1340 1340 1341 1343 1344 1346 1347 1347 1348 1350 1351 1353 1354 1356 1358 1360 1362 1364 1366 1368 1370 1373 1375 1377 1380 1382 1384 1386 1388 1390 1392 1393 1395 1397 1399 1401 1403 1404 1406 1408 1409 1410 1411 1413 1414 1415 1417 1418 1420 1421 1423 1424 1426 1428 1429 1430 1431 1432
1333 1334 1335 1337 1338 1338 1338 1338 1338 1338 1339 1340 1341 1342 1344 1345 1347 1348 1348 1350 1351 1353 1354 1356 1358 1359 1361 1363 1365 1367 1369 1372 1374 1376 1378 1380 1382 1384 1386 1388 1390 1392 1394 1396 1398 1399 1401 1403 1404 1406 1407 1408 1409 1411 1412 1414 1415 1417 1418 1419 1421 1422 1424 1425 1427 1428 1429 1430 1432
1335 1336 1337 1338 1338 1338 1338 1338 1338 1339 1340 1342 1343 1344 1346 1347 1348 1349 1350 1352 1353 1355 1356 1357 1359 1361 1363 1365 1367 1368 1371 1373 1375 1377 1378 1380 1382 1384 1386 1388 1390 1392 1394 1396 1398 1400 1401 1403 1404 1405 1406 1408 1409 1411 1412 1414 1415 1417 1418 1419 1421 1422 1424 1425 1426 1427 1428 1430 1431
1336 1336 1336 1337 1337 1337 1338 1338 1339 1341 1342 1343 1344 1346 1347 1349 1350 1351 1352 1354 1355 1357 1358 1359 1361 1363 1365 1366 1368 1370 1372 1373 1375 1377 1379 1381 1383 1385 1387 1388 1391 1393 1395 1396 1398 1399 1401 1402 1403 1404 1406 1407 1408 1410 1412 1413 1415 1416 1418 1419 1421 1422 1423 1424 1425 1427 1428 1429 1430
1335 1335 1336 1336 1337 1338 1339 1340 1341 1342 1343 1345 1346 1347 1349 1350 1351 1352 1353 1355 1357 1358 1360 1361 1363 1364 1366 1368 1369 1371 1373 1374 1376 1378 1380 1381 1383 1385 1387 1389 1391 1393 1395 1396 1398 1399 1400 1402 1403 1404 1405 1407 1408 1410 1411 1413 1415 1416 1418 1419 1420 1421 1422 1423 1424 1426 1427 1428 1429
1335 1336 1337 1337 1338 1339 1340 1342 1343 1344 1345 1347 1348 1349 1350 1351 1352 1353 1355 1356 1358 1359 1361 1363 1364 1366 1367 1369 1370 1372 1373 1375 1377 1379 1381 1382 1384 1386 1388 1389 1391 1393 1394 1396 1397 1398 1400 1401 1403 1404 1405 1407 1408 1410 1412 1413 1415 1416 1417 1418 1419 1420 1421 1422 1423 1424 1425 1427 1427
1336 1337 1337 1338 1340 1341 1342 1343 1345 1346 1347 1348 1350 1351 1352 1353 1354 1355 1357 1358 1359 1361 1362 1364 1365 1367 1368 1370 1371 1373 1374 1376 1378 1380 1381 1383 1384 1386 1388 1389 1391 1392 1394 1396 1397 1398 1400 1402 1403 1404 1406 1408 1409 1410 1412 1413 1414 1415 1417 1418 1418 1419 1420 1421 1422 1423 1424 1425 1426
1337 1338 1339 1340 1341 1343 1344 1345 1346 1347 1348 1349 1351 1352 1353 1354 1355 1357 1358 1359 1360 1362 1363 1365 1366 1368 1369 1371 1373 1374 1376 1377 1379 1381 1382 1383 1385 1386 1388 1389 1391 1392 1394 1396 1397 1399 1400 1402 1403 1405 1406 1408 1409 1410 1412 1413 1414 1415 1416 1417 1418 1418 1419 1420 1421 1422 1423 1424 1425
1338 1339 1340 1341 1343 1344 1345 1346 1348 1348 1349 1351 1352 1353 1354 1355 1357 1358 1359 1361 1362 1363 1364 1365 1367 1369 1370 1372 1373 1375 1377 1378 1380 1381 1383 1384 1385 1387 1388 1390 1391 1393 1394 1396 1397 1399 1400 1402 1403 1405 1406 1407 1408 1410 1411 1412 1413 1414 1415 1416 1417 1417 1418 1419 1420 1421 1422 1423 1424
1339 1340 1341 1343 1344 1345 1347 1348 1349 1350 1351 1352 1353 1355 1356 1357 1358 1359 1360 1362 1363 1364 1365 1367 1368 1370 1372 1373 1375 1376 1378 1379 1381 1382 1383 1385 1386 1387 1388 1390 1392 1393 1394 1396 1397 1399 1400 1402 1403 1404 1406 1407 1408 1409 1410 1411 1412 1413 1414 1415 1416 1416 1417 1418 1419 1420 1421 1422 1423
1341 1342 1343 1344 1345 1347 1348 1350 1351 1352 1352 1353 1354 1356 1357 1358 1359 1360 1362 1363 1364 1365 1367 1368 1370 1371 1373 1374 1376 1377 1378 1380 1381 1382 1384 1385 1386 1388 1389 1390 1392 1393 1394 1396 1397 1399 1400 1402 1403 1404 1405 1407 1408 1408 1409 1410 1411 1412 1413 1414 1415 1415 1416 1417 1418 1419 1420 1420 1421
1343 1343 1344 1345 1347 1348 1350 1352 1353 1353 1354 1355 1356 1357 1358 1359 1360 1362 1363 1364 1365 1366 1367 1369 1370 1372 1373 1375 1376 1378 1379 1380 1382 1383 1384 1385 1387 1388 1388 1390 1391 1393 1394 1396 1397 1399 1400 1402 1403 1404 1405 1406 1407 1408 1409 1410 1411 1412 1413 1413 1414 1415 1415 1416 1417 1418 1418 1419 1420
1346 1347 1347 1348 1349 1351 1352 1353 1354 1355 1356 1357 1357 1358 1359 1360 1362 1363 1364 1366 1366 1367 1368 1370 1371 1373 1374 1375 1377 1378 1380 1382 1383 1383 1384 1386 1387 1388 1389 1390 1391 1393 1394 1396 1398 1399 1401 1402 1403 1404 1405 1406 1407 1408 1408 1409 1410 1411 1412 1412 1413 1414 1415 1415 1416 1417 1418 1418 1419
1349 1350 1351 1352 1353 1354 1355 1356 1356 1357 1358 1358 1359 1359 1360 1362 1363 1364 1366 1367 1368 1368 1369 1371 1372 1373 1375 1377 1378 1379 1381 1382 1383 1384 1385 1386 1387 1388 1389 1390 1392 1393 1395 1397 1398 1399 1401 1402 1403 1404 1405 1406 1407 1407 1408 1408 1409 1410 1411 1412 1412 1413 1413 1414 1415 1416 1417 1418 1418
1352 1353 1355 1356 1357 1357 1358 1358 1359 1359 1360 1360 1360 1361 1362 1363 1364 1366 1367 1368 1369 1370 1371 1372 1373 1375 1376 1378 1379 1380 1381 1382 1383 1384 1385 1386 1388 1388 1390 1391 1393 1394 1396 1397 1399 1400 1401 1402 1403 1404 1405 1405 1406 1407 1407 1408 1408 1409 1410 1411 1411 1412 1413 1413 1414 1415 1416 1417 1417
1355 1356 1357 1358 1359 1360 1360 1361 1361 1361 1362 1362 1362 1363 1364 1365 1366 1368 1369 1370 1371 1372 1373 1374 1374 1376 1377 1378 1379 1380 1382 1383 1384 1385 1386 1387 1388 1389 1391 1392 1393 1395 1397 1398 1399 1400 1401 1402 1403 1403 1404 1405 1406 1406 1407 1408 1408 1409 1410 1410 1411 1412 1412 1413 1414 1414 1415 1416 1417
1356 1357 1358 1359 1360 1361 1362 1362 1363 1363 1363 1363 1363 1364 1365 1367 1368 1369 1370 1372 1373 1374 1375 1375 1376 1377 1378 1379 1380 1381 1382 1383 1384 1386 1387 1388 1389 1391 1392 1393 1394 1396 1397 1398 1399 1400 1401 1402 1403 1403 1404 1404 1405 1406 1407 1407 1408 1409 1409 1410 1411 1411 1412 1413 1413 1414 1415 1415 1416